Weather History for West Yellowstone, MT

Change the Weather History Date:

Sunday, June 8, 2014

  Actual Average Record
Temperature  
Mean Temperature 46 °F -  
Max Temperature 60 °F 64 °F 73 °F (2013)
Min Temperature 32 °F 37 °F 32 °F (2014)
Degree Days  
Heating Degree Days 19    
Moisture  
Dew Point 34 °F    
Average Humidity 65    
Maximum Humidity 100    
Minimum Humidity 25    
Precipitation  
Precipitation 0.00 in - - ()
Sea Level Pressure  
Sea Level Pressure 30.18 in    
Wind  
Wind Speed 4 mph (NE)    
Max Wind Speed 17 mph    
Max Gust Speed 21 mph    
Visibility 10 miles    
Events Rain    
Averages and records for this station are not official NWS values.
T = Trace of Precipitation, MM = Missing Value Source: NWS Daily Summary

Daily Weather History Graph

Daily Weather History Graph

Search for Another Location

Airport:

Trip Planner

Search our weather history database for the weather conditions in past years. The results will help you decide how hot, cold, wet, or windy it might be!

Date:

Astronomy

Jun. 08, 2014 Rise Set
Actual Time 5:39 AM MDT 9:08 PM MDT
Civil Twilight 5:02 AM MDT 9:44 PM MDT
Nautical Twilight 4:14 AM MDT 10:33 PM MDT
Astronomical Twilight 3:12 AM MDT 11:35 PM MDT
Moon 4:19 PM MDT (6/8) 2:45 AM MDT (6/8)
Length of Visible Light 16h 42m
Length of Day
15h 28m
Waxing Gibbous, 77% of the Moon is Illuminated
Jun 8
Waxing Gibbous
Jun 12
Full
Jun 19
Last Quarter
Jun 27
New
Jul 5
First Quarter

Hourly Weather History & Observations

Time (MDT) Temp. Windchill Dew Point Humidity Pressure Visibility Wind Dir Wind Speed Gust Speed Precip Events Conditions
12:10 AM 42.8 °F 40.1 °F 39.2 °F 87% 30.17 in 5.0 mi North 4.6 mph - 0.01 in Rain Rain
12:30 AM 42.8 °F - 39.2 °F 87% 30.16 in 7.0 mi Calm Calm - 0.05 in Rain Light Rain
12:50 AM 44.6 °F - 41.0 °F 87% 30.16 in 10.0 mi Calm Calm - 0.06 in Rain Light Rain
1:10 AM 42.8 °F 39.3 °F 41.0 °F 93% 30.15 in 10.0 mi SE 5.8 mph - N/A   Overcast
1:30 AM 41.0 °F 36.4 °F 39.2 °F 93% 30.15 in 10.0 mi SE 6.9 mph - N/A   Overcast
1:50 AM 39.2 °F 35.0 °F 37.4 °F 93% 30.14 in 10.0 mi SE 5.8 mph - N/A   Overcast
2:10 AM 39.2 °F 35.0 °F 37.4 °F 93% 30.14 in 10.0 mi SSE 5.8 mph - N/A   Overcast
2:50 AM 37.4 °F 34.9 °F 37.4 °F 100% 30.14 in 10.0 mi WNW 3.5 mph - N/A   Mostly Cloudy
3:10 AM 37.4 °F - 37.4 °F 100% 30.15 in 10.0 mi Calm Calm - N/A   Overcast
3:30 AM 37.4 °F - 37.4 °F 100% 30.15 in 10.0 mi Calm Calm - N/A   Overcast
3:50 AM 35.6 °F 32.8 °F 35.6 °F 100% 30.15 in 10.0 mi North 3.5 mph - N/A   Mostly Cloudy
4:10 AM 35.6 °F - 35.6 °F 100% 30.15 in 10.0 mi Calm Calm - N/A   Mostly Cloudy
4:30 AM 35.6 °F - 35.6 °F 100% 30.16 in 10.0 mi Calm Calm - N/A   Overcast
4:50 AM 35.6 °F 31.7 °F 35.6 °F 100% 30.16 in 10.0 mi WNW 4.6 mph - N/A   Overcast
5:10 AM 37.4 °F - 35.6 °F 93% 30.16 in 10.0 mi Calm Calm - N/A   Overcast
5:30 AM 35.6 °F - 35.6 °F 100% 30.16 in 10.0 mi Calm Calm - N/A   Mostly Cloudy
5:50 AM 32.0 °F 28.7 °F 32.0 °F 100% 30.16 in 10.0 mi South 3.5 mph - N/A   Partly Cloudy
6:10 AM 32.0 °F - 32.0 °F 100% 30.17 in 8.0 mi Calm Calm - N/A   Clear
6:30 AM 33.8 °F - 33.8 °F 100% 30.18 in 9.0 mi Calm Calm - N/A   Clear
6:50 AM 37.4 °F - 37.4 °F 100% 30.18 in 10.0 mi Calm Calm - N/A   Clear
7:10 AM 39.2 °F - 37.4 °F 93% 30.19 in 10.0 mi Calm Calm - N/A   Clear
7:30 AM 41.0 °F - 37.4 °F 87% 30.19 in 10.0 mi Calm Calm - N/A   Clear
7:50 AM 42.8 °F - 37.4 °F 81% 30.19 in 10.0 mi Calm Calm - N/A   Clear
8:10 AM 44.6 °F 43.1 °F 39.2 °F 81% 30.19 in 10.0 mi ENE 3.5 mph - N/A   Clear
8:30 AM 46.4 °F 44.3 °F 37.4 °F 71% 30.19 in 10.0 mi ENE 4.6 mph - N/A   Clear
8:50 AM 46.4 °F 43.5 °F 37.4 °F 71% 30.20 in 10.0 mi ENE 5.8 mph - N/A   Clear
9:10 AM 48.2 °F - 37.4 °F 66% 30.20 in 10.0 mi North 4.6 mph - N/A   Clear
9:30 AM 48.2 °F - 35.6 °F 62% 30.20 in 10.0 mi Calm Calm - N/A   Clear
9:50 AM 50.0 °F - 33.8 °F 54% 30.20 in 10.0 mi ENE 4.6 mph - N/A   Clear
10:10 AM 51.8 °F - 35.6 °F 54% 30.20 in 10.0 mi East 6.9 mph - N/A   Clear
10:30 AM 53.6 °F - 33.8 °F 47% 30.20 in 10.0 mi ESE 4.6 mph - N/A   Mostly Cloudy
10:50 AM 50.0 °F - 32.0 °F 50% 30.20 in 10.0 mi SE 5.8 mph - N/A   Overcast
11:30 AM 50.0 °F - 32.0 °F 50% 30.20 in 10.0 mi Calm Calm - N/A   Mostly Cloudy
11:50 AM 53.6 °F - 32.0 °F 44% 30.20 in 10.0 mi SE 6.9 mph - N/A   Clear
12:10 PM 55.4 °F - 32.0 °F 41% 30.20 in 10.0 mi ENE 8.1 mph - N/A   Clear
12:30 PM 55.4 °F - 33.8 °F 44% 30.20 in 10.0 mi NE 17.3 mph 20.7 mph N/A   Scattered Clouds
12:50 PM 55.4 °F - 32.0 °F 41% 30.21 in 10.0 mi ENE 9.2 mph - N/A   Partly Cloudy
1:10 PM 55.4 °F - 30.2 °F 38% 30.20 in 10.0 mi East 6.9 mph - N/A   Partly Cloudy
1:30 PM 57.2 °F - 28.4 °F 33% 30.20 in 10.0 mi NNE 8.1 mph - N/A   Partly Cloudy
1:50 PM 57.2 °F - 28.4 °F 33% 30.19 in 10.0 mi North 4.6 mph - N/A   Partly Cloudy
2:10 PM 55.4 °F - 30.2 °F 38% 30.19 in 10.0 mi East 5.8 mph - N/A   Mostly Cloudy
2:30 PM 55.4 °F - 30.2 °F 38% 30.19 in 10.0 mi NNE 5.8 mph - N/A   Overcast
2:50 PM 57.2 °F - 32.0 °F 38% 30.19 in 10.0 mi NE 13.8 mph - N/A   Mostly Cloudy
3:10 PM 57.2 °F - 32.0 °F 38% 30.19 in 10.0 mi ENE 9.2 mph - N/A   Scattered Clouds
3:30 PM 59.0 °F - 32.0 °F 36% 30.19 in 10.0 mi NE 8.1 mph - N/A   Scattered Clouds
3:50 PM 57.2 °F - 28.4 °F 33% 30.19 in 10.0 mi North 8.1 mph - N/A   Scattered Clouds
4:10 PM 57.2 °F - 32.0 °F 38% 30.19 in 10.0 mi WNW 3.5 mph - N/A   Scattered Clouds
4:30 PM 59.0 °F - 30.2 °F 34% 30.18 in 10.0 mi SSW 6.9 mph - N/A   Clear
4:50 PM 59.0 °F - 28.4 °F 31% 30.18 in 10.0 mi North 3.5 mph - N/A   Scattered Clouds
5:10 PM 59.0 °F - 28.4 °F 31% 30.18 in 10.0 mi South 4.6 mph - N/A   Overcast
5:30 PM 60.8 °F - 24.8 °F 25% 30.18 in 10.0 mi NNW 4.6 mph - N/A   Mostly Cloudy
5:50 PM 57.2 °F - 26.6 °F 31% 30.18 in 10.0 mi NW 3.5 mph - N/A   Partly Cloudy
6:10 PM 59.0 °F - 24.8 °F 27% 30.18 in 10.0 mi Calm Calm - N/A   Clear
6:30 PM 59.0 °F - 24.8 °F 27% 30.18 in 10.0 mi NW 5.8 mph - N/A   Clear
6:50 PM 59.0 °F - 28.4 °F 31% 30.18 in 10.0 mi WSW 3.5 mph - N/A   Clear
7:10 PM 59.0 °F - 26.6 °F 29% 30.17 in 10.0 mi North 6.9 mph - N/A   Clear
7:30 PM 59.0 °F - 23.0 °F 25% 30.18 in 10.0 mi NNW 5.8 mph - N/A   Clear
7:50 PM 59.0 °F - 26.6 °F 29% 30.18 in 10.0 mi NNW 3.5 mph - N/A   Clear
8:30 PM 55.4 °F - 28.4 °F 36% 30.18 in 10.0 mi Calm Calm - N/A   Clear
8:50 PM 50.0 °F - 35.6 °F 58% 30.19 in 10.0 mi Calm Calm - N/A   Clear
9:10 PM 46.4 °F - 35.6 °F 66% 30.19 in 10.0 mi Calm Calm - N/A   Clear
9:30 PM 44.6 °F - 39.2 °F 81% 30.20 in 10.0 mi Calm Calm - N/A   Clear
9:50 PM 44.6 °F 43.1 °F 37.4 °F 76% 30.20 in 10.0 mi South 3.5 mph - N/A   Clear
10:10 PM 41.0 °F - 37.4 °F 87% 30.20 in 10.0 mi Calm Calm - N/A   Clear
10:30 PM 42.8 °F 41.1 °F 35.6 °F 76% 30.20 in 10.0 mi South 3.5 mph - N/A   Clear
10:50 PM 41.0 °F - 35.6 °F 81% 30.20 in 10.0 mi Calm Calm - N/A   Clear
11:10 PM 41.0 °F - 33.8 °F 76% 30.20 in 10.0 mi Calm Calm - N/A   Clear
11:30 PM 37.4 °F - 33.8 °F 87% 30.19 in 10.0 mi Calm Calm - N/A   Clear
11:50 PM 35.6 °F 32.8 °F 33.8 °F 93% 30.20 in 10.0 mi SW 3.5 mph - N/A   Clear